Council Bluffs, IA

1:44 PM CDT on October 14, 2019 (GMT -0500)
Council Bluffs Municipal

Weather History for KCBF - September, 2019

Change the Weather History Date:

Friday, September 20, 2019

  Actual Average Record
Temperature  
Mean Temperature 78 °F -  
Max Temperature 86 °F 72 °F 93 °F (2018)
Min Temperature 69 °F 51 °F 42 °F (2003)
Cooling Degree Days 12    
Growing Degree Days 28 (Base 50)    
Moisture  
Dew Point 71 °F    
Average Humidity 85    
Maximum Humidity 100    
Minimum Humidity 51    
Precipitation  
Precipitation 0.00 in - - ()
Sea Level Pressure  
Sea Level Pressure 29.94 in    
Wind  
Wind Speed 10 mph ()    
Max Wind Speed 23 mph    
Max Gust Speed 33 mph    
Visibility 9.8 miles    
Events      
Averages and records for this station are not official NWS values.
T = Trace of Precipitation, MM = Missing Value Source: Averaged Metar Reports

Daily Weather History Graph

Daily Weather History Graph

Search for Another Location

Airport or City:

Astronomy

Sep. 20, 2019 Rise Set
Actual Time 7:08 AM CDT 7:23 PM CDT
Civil Twilight 6:40 AM CDT 7:51 PM CDT
Nautical Twilight 6:08 AM CDT 8:23 PM CDT
Astronomical Twilight 5:35 AM CDT 8:56 PM CDT
Moon 11:10 PM CDT (9/20) 1:17 PM CDT (9/20)
Length of Visible Light 13h 10m
Length of Day
12h 15m
Waning Gibbous, 65% of the Moon is Illuminated
Sep 20
Waning Gibbous
Sep 21
Last Quarter
Sep 28
New
Oct 5
First Quarter
Oct 13
Full

Hourly Weather History & Observations

Time (CDT) Temp. Heat Index Dew Point Humidity Pressure Visibility Wind Dir Wind Speed Gust Speed Precip Events Conditions
12:15 AM 73.4 °F - 73.4 °F 100% 29.97 in 10.0 mi SSE 6.9 mph - N/A   Clear
12:35 AM 73.4 °F - 73.4 °F 100% 29.97 in 10.0 mi South 8.1 mph - N/A   Clear
12:55 AM 73.4 °F - 73.4 °F 100% 29.97 in 10.0 mi SSE 8.1 mph - N/A   Clear
1:15 AM 73.4 °F - 73.4 °F 100% 29.98 in 10.0 mi SE 6.9 mph - N/A   Clear
1:35 AM 71.6 °F - 71.6 °F 100% 29.99 in 10.0 mi SE 6.9 mph - N/A   Clear
1:55 AM 71.6 °F - 71.6 °F 100% 29.98 in 10.0 mi SE 9.2 mph - N/A   Clear
2:15 AM 71.6 °F - 71.6 °F 100% 29.98 in 10.0 mi SE 6.9 mph - N/A   Clear
2:35 AM 71.6 °F - 71.6 °F 100% 29.98 in 10.0 mi SSE 8.1 mph - N/A   Clear
2:55 AM 71.6 °F - 71.6 °F 100% 29.98 in 10.0 mi SE 8.1 mph - N/A   Clear
3:15 AM 71.6 °F - 71.6 °F 100% 29.98 in 10.0 mi SE 9.2 mph - N/A   Clear
3:35 AM 71.6 °F - 71.6 °F 100% 29.98 in 10.0 mi SE 8.1 mph - N/A   Clear
3:55 AM 71.6 °F - 71.6 °F 100% 29.97 in 10.0 mi SSE 6.9 mph - N/A   Clear
4:15 AM 71.6 °F - 71.6 °F 100% 29.97 in 9.0 mi SE 9.2 mph - N/A   Clear
4:35 AM 71.6 °F - 71.6 °F 100% 29.97 in 10.0 mi SSE 9.2 mph - N/A   Clear
4:55 AM 71.6 °F - 71.6 °F 100% 29.97 in 10.0 mi SE 6.9 mph - N/A   Clear
5:15 AM 71.6 °F - 71.6 °F 100% 29.97 in 10.0 mi SE 6.9 mph - N/A   Clear
5:35 AM 69.8 °F - 69.8 °F 100% 29.97 in 10.0 mi SE 6.9 mph - N/A   Clear
5:55 AM 69.8 °F - 69.8 °F 100% 29.97 in 9.0 mi SE 8.1 mph - N/A   Clear
6:15 AM 69.8 °F - 69.8 °F 100% 29.97 in 8.0 mi SSE 6.9 mph - N/A   Clear
6:55 AM 69.8 °F - 69.8 °F 100% 29.97 in 10.0 mi SE 8.1 mph - N/A   Clear
7:15 AM 69.8 °F - 69.8 °F 100% 29.97 in 7.0 mi SE 8.1 mph - N/A   Clear
7:35 AM 69.8 °F - 69.8 °F 100% 29.98 in 7.0 mi SE 9.2 mph - N/A   Clear
7:55 AM 69.8 °F - 69.8 °F 100% 29.99 in 8.0 mi SSE 9.2 mph - N/A   Clear
8:15 AM 69.8 °F - 69.8 °F 100% 29.99 in 8.0 mi SE 8.1 mph - N/A   Clear
8:35 AM 71.6 °F - 71.6 °F 100% 30.00 in 9.0 mi SE 10.4 mph - N/A   Clear
8:55 AM 73.4 °F - 73.4 °F 100% 30.00 in 9.0 mi SE 10.4 mph - N/A   Clear
9:15 AM 73.4 °F - 73.4 °F 100% 30.00 in 10.0 mi SE 9.2 mph - N/A   Clear
9:35 AM 77.0 °F - 73.4 °F 89% 30.00 in 10.0 mi SSE 10.4 mph - N/A   Clear
9:55 AM 75.2 °F - 73.4 °F 94% 30.01 in 10.0 mi SSE 9.2 mph - N/A   Clear
10:15 AM 77.0 °F - 73.4 °F 89% 30.00 in 10.0 mi SE 9.2 mph - N/A   Clear
10:35 AM 78.8 °F - 73.4 °F 83% 30.00 in 10.0 mi SE 12.7 mph - N/A   Clear
10:55 AM 80.6 °F 85.4 °F 73.4 °F 79% 29.99 in 10.0 mi SSE 10.4 mph - N/A   Clear
11:15 AM 80.6 °F 85.4 °F 73.4 °F 79% 29.99 in 10.0 mi SSE 12.7 mph - N/A   Clear
11:35 AM 82.4 °F 88.2 °F 73.4 °F 74% 29.99 in 10.0 mi South 13.8 mph - N/A   Clear
11:55 AM 82.4 °F 88.2 °F 73.4 °F 74% 29.98 in 10.0 mi SSE 15.0 mph - N/A   Clear
12:15 PM 84.2 °F 90.9 °F 73.4 °F 70% 29.98 in 10.0 mi South 12.7 mph 19.6 mph N/A   Clear
12:35 PM 84.2 °F 88.4 °F 69.8 °F 62% 29.97 in 10.0 mi South 15.0 mph - N/A   Clear
12:55 PM 84.2 °F 88.4 °F 69.8 °F 62% 29.96 in 10.0 mi South 17.3 mph 24.2 mph N/A   Clear
1:15 PM 84.2 °F 88.4 °F 69.8 °F 62% 29.95 in 10.0 mi South 16.1 mph - N/A   Partly Cloudy
1:35 PM 84.2 °F 88.4 °F 69.8 °F 62% 29.95 in 10.0 mi SSE 12.7 mph 21.9 mph N/A   Scattered Clouds
1:55 PM 84.2 °F 89.6 °F 71.6 °F 66% 29.94 in 10.0 mi SSE 16.1 mph - N/A   Mostly Cloudy
2:15 PM 86.0 °F 90.4 °F 69.8 °F 58% 29.93 in 10.0 mi SSE 19.6 mph - N/A   Scattered Clouds
2:35 PM 84.2 °F 88.4 °F 69.8 °F 62% 29.92 in 10.0 mi SSE 18.4 mph - N/A   Scattered Clouds
2:55 PM 86.0 °F 89.4 °F 68.0 °F 55% 29.91 in 10.0 mi SSE 18.4 mph 28.8 mph N/A   Scattered Clouds
3:15 PM 86.0 °F 89.4 °F 68.0 °F 55% 29.90 in 10.0 mi SSE 20.7 mph 29.9 mph N/A   Partly Cloudy
3:35 PM 86.0 °F 88.2 °F 66.2 °F 51% 29.90 in 10.0 mi SSE 18.4 mph 27.6 mph N/A   Scattered Clouds
3:55 PM 84.2 °F 86.6 °F 66.2 °F 55% 29.90 in 10.0 mi SSE 21.9 mph - N/A   Scattered Clouds
4:15 PM 84.2 °F 86.6 °F 66.2 °F 55% 29.90 in 10.0 mi South 18.4 mph 28.8 mph N/A   Scattered Clouds
4:35 PM 84.2 °F 86.6 °F 66.2 °F 55% 29.89 in 10.0 mi SSE 20.7 mph 27.6 mph N/A   Mostly Cloudy
4:55 PM 84.2 °F 86.6 °F 66.2 °F 55% 29.89 in 10.0 mi South 23.0 mph 32.2 mph N/A   Scattered Clouds
5:15 PM 84.2 °F 86.6 °F 66.2 °F 55% 29.89 in 10.0 mi SSE 19.6 mph 29.9 mph N/A   Partly Cloudy
5:35 PM 84.2 °F 86.6 °F 66.2 °F 55% 29.89 in 10.0 mi South 19.6 mph 29.9 mph N/A   Partly Cloudy
5:55 PM 82.4 °F 84.6 °F 66.2 °F 58% 29.89 in 10.0 mi SSE 18.4 mph 26.5 mph N/A   Scattered Clouds
6:15 PM 80.6 °F 83.2 °F 68.0 °F 65% 29.89 in 10.0 mi South 18.4 mph 26.5 mph N/A   Partly Cloudy
6:35 PM 78.8 °F - 68.0 °F 69% 29.89 in 10.0 mi South 18.4 mph 33.4 mph N/A   Partly Cloudy
6:55 PM 77.0 °F - 69.8 °F 78% 29.89 in 10.0 mi South 12.7 mph 20.7 mph N/A   Partly Cloudy
7:15 PM 77.0 °F - 69.8 °F 78% 29.89 in 10.0 mi South 12.7 mph 20.7 mph N/A   Scattered Clouds
7:35 PM 75.2 °F - 69.8 °F 83% 29.89 in 10.0 mi South 10.4 mph - N/A   Partly Cloudy
7:55 PM 75.2 °F - 71.6 °F 89% 29.89 in 10.0 mi SSE 10.4 mph - N/A   Clear
8:15 PM 75.2 °F - 71.6 °F 89% 29.90 in 10.0 mi South 12.7 mph - N/A   Scattered Clouds
8:35 PM 75.2 °F - 71.6 °F 89% 29.90 in 10.0 mi South 10.4 mph 16.1 mph N/A   Mostly Cloudy
8:55 PM 73.4 °F - 71.6 °F 94% 29.89 in 10.0 mi South 10.4 mph - N/A   Partly Cloudy
9:15 PM 73.4 °F - 71.6 °F 94% 29.90 in 10.0 mi South 10.4 mph - N/A   Scattered Clouds
9:35 PM 73.4 °F - 71.6 °F 94% 29.90 in 10.0 mi South 13.8 mph - N/A   Overcast
9:55 PM 73.4 °F - 71.6 °F 94% 29.90 in 10.0 mi South 15.0 mph - N/A   Overcast
10:15 PM 73.4 °F - 71.6 °F 94% 29.89 in 10.0 mi SSE 13.8 mph - N/A   Mostly Cloudy
10:35 PM 73.4 °F - 71.6 °F 94% 29.89 in 10.0 mi SSE 16.1 mph 23.0 mph N/A   Overcast
10:55 PM 73.4 °F - 71.6 °F 94% 29.89 in 10.0 mi SSE 16.1 mph - N/A   Overcast
11:15 PM 71.6 °F - 71.6 °F 100% 29.89 in 10.0 mi South 16.1 mph 24.2 mph N/A   Overcast
11:35 PM 73.4 °F - 71.6 °F 94% 29.89 in 10.0 mi SSE 15.0 mph - N/A   Overcast
11:55 PM 71.6 °F - 71.6 °F 100% 29.89 in 10.0 mi SSE 13.8 mph 24.2 mph N/A   Overcast